Estación Meteorológica Peña el Pijo (Robertgarden) [ 07/15/20 05:28:42 CEST ]

Fecha Hora Presion(HPa) Temp (°C) Humedad % Rocio (°C) Viento ( m/s) Direccion Lluvia 1Hora(mm) Lluvia 24H(mm) LLuvia Total(mm)
2020-Mar-03 01:08:38 1007.200 - - - - N     39.88
2020-Mar-03 02:09:28 1007.400 - - - - N     39.88
2020-Mar-03 03:10:06 1007.000 - - - - N     39.88
2020-Mar-03 04:09:51 1006.400 - - - - N     39.88
2020-Mar-03 05:09:37 1006.600 - - - - N     39.88
2020-Mar-03 06:15:01 1006.300 - - - - N     39.88
2020-Mar-03 07:09:32 1007.100 - - - - N     39.88
2020-Mar-03 08:09:15 1007.200 - - - - N     39.88
2020-Mar-03 09:09:10 1007.400 - - - - N     39.88
2020-Mar-03 10:08:55 1007.800 - - - - N     39.88
2020-Mar-03 11:08:54 1008.000 - - - - N     39.88
2020-Mar-03 12:09:31 1008.200 - - - - N     39.88
2020-Mar-03 13:09:06 1007.400 - - - - N     39.88
2020-Mar-03 14:09:13 1006.800 - - - - N     39.88
2020-Mar-03 15:09:32 1007.700 - - - - N     39.88
2020-Mar-03 16:09:24 1007.400 - - - - N     39.88
2020-Mar-03 17:09:03 1007.800 - - - - N     39.88
2020-Mar-03 18:09:24 1008.100 - - - - N     39.88
2020-Mar-03 19:09:05 1008.100 - - - - N     39.88
2020-Mar-03 20:08:50 1009.200 - - - - N     39.88
2020-Mar-03 21:09:02 1009.800 - - - - N     39.88
2020-Mar-03 22:09:31 1010.400 - - - - N     39.88
2020-Mar-03 23:09:03 1010.500 - - - - N     39.88

Temperatura Máxima:    Temperatura Mínima:
Presión Máxima:1010.500 Hpa    Presión Mínima:1006.300 Hpa


Volver